This is the latest recevied weather packets stored in our database for station/object WW4HG. If no packets are shown the sender has not sent any weather packets the latest 10 day(s).
| Time | Temp. | Humidity | Pressure | Rain* | Wind** | Luminosity | Snow |
|---|---|---|---|---|---|---|---|
| 1778156618 | 20° C | 71% | 1011.9 hPa | 0 mm | - | 29 W/m² | - |
| 1778156314 | 20° C | 72% | 1011.9 hPa | 0 mm | - | 41 W/m² | - |
| 1778156010 | 19.44° C | 72% | 1011.9 hPa | 0 mm | - | 37 W/m² | - |
| 1778155707 | 19.44° C | 72% | 1011.9 hPa | 0 mm | - | 39 W/m² | - |
| 1778155403 | 19.44° C | 73% | 1012.3 hPa | 0 mm | - | 16 W/m² | - |
| 1778155099 | 19.44° C | 74% | 1012.3 hPa | 0 mm | - | 13 W/m² | - |
| 1778154795 | 19.44° C | 75% | 1012.3 hPa | 0 mm | - | 24 W/m² | - |
| 1778154491 | 19.44° C | 75% | 1012.6 hPa | 0 mm | - | 17 W/m² | - |
| 1778154188 | 19.44° C | 75% | 1012.9 hPa | 0 mm | - | 11 W/m² | - |
| 1778153886 | 19.44° C | 75% | 1012.9 hPa | 0 mm | - | 13 W/m² | - |
| 1778153583 | 19.44° C | 75% | 1012.9 hPa | 0 mm | - | 15 W/m² | - |
| 1778153280 | 19.44° C | 75% | 1012.9 hPa | 0 mm | - | 14 W/m² | - |
| 1778152977 | 19.44° C | 75% | 1013.6 hPa | 0 mm | - | 25 W/m² | - |
| 1778152675 | 19.44° C | 75% | 1013.3 hPa | 0 mm | - | 27 W/m² | - |
| 1778152371 | 19.44° C | 74% | 1013.3 hPa | 0 mm | - | 22 W/m² | - |
| 1778152066 | 19.44° C | 74% | 1013.6 hPa | 0 mm | - | 10 W/m² | - |
| 1778151758 | 19.44° C | 74% | 1012.9 hPa | 0 mm | - | 6 W/m² | - |
| 1778151455 | 20° C | 73% | 1012.6 hPa | 0 mm | - | 2 W/m² | - |
| 1778151151 | 20° C | 73% | 1012.3 hPa | 0 mm | - | 2 W/m² | - |
| 1778150848 | 20° C | 72% | 1012.3 hPa | 0 mm | - | 1 W/m² | - |
| 1778150545 | 20° C | 72% | 1013.3 hPa | 0 mm | - | 1 W/m² | - |
| 1778150241 | 20.56° C | 71% | 1013.6 hPa | 0 mm | - | 0 W/m² | - |
| 1778149937 | 20.56° C | 71% | 1014 hPa | 1.78 mm | - | 0 W/m² | - |
| 1778149634 | 20.56° C | 69% | 1014.3 hPa | 1.78 mm | - | 0 W/m² | - |
| 1778149330 | 20.56° C | 66% | 1014.6 hPa | 0 mm | - | 0 W/m² | - |
* Rain latest hour (hover to see other rain measurements)
** Current wind speed in m/s (hover to see current wind gust speed)